Location: Unspecified
(29.9680°N, 0.0000°E)
Time: 21:40:33
(UTC+00:00)

Explorer 7 - Pass Details

Date: 02 July 2019
Orbit: 485 x 680 km, 50.3° (Epoch: 21 October)

Event Time Altitude Azimuth Distance (km) Brightness Sun altitude
Rises 02:46:34 0° 191° (S) 2,535 - -24.1°
Reaches altitude 10° 02:49:12 10° 171° (S) 1,673 - -23.8°
Maximum altitude 02:51:50 18° 127° (SE) 1,266 - -23.4°
Exits shadow 02:51:54 18° 125° (SE) 1,266 8.7 -23.4°
Drops below altitude 10° 02:54:33 10° 82° (E) 1,727 10.0 -23.0°
Sets 02:57:19 0° 64° (ENE) 2,651 11.5 -22.6°
